Terug naar catalogus

STARLINK-5402

ActiefCommunicatieVLEO
NORAD 54869·PAYLOAD·🇺🇸 United States

Gelanceerd Dec 28, 2022 vanaf Cape Canaveral Space Force Station

Loading…

Volgende Passages (komende 24 uur)

TLE

VersSource: CelesTrak SupGP

Epoch: Sep 14, 2026, 22:05 UTC

1 54869C 22177BB  26257.92062500 -.00013867  00000+0 -50233-3 0  2576
2 54869  43.0016 133.3478 0001275 263.2108 176.2977 15.27581055    13

Volg STARLINK-5402 in realtime met AllMySat

Download on the App Store